When you browse on this site, cookies collect data to enhance your experience and personalize the content and advertising you see.
Visit our Privacy Policy to learn more. By continuing to use the site, you agree to this use of cookies and data.
  • In Hungary
  • List of Countries
  • For 7 days
  • Water Temperature
  • Satellite Maps
  • Weather Map
  • News
  • Weather Widgets
  • user-avatar
    Login

    Hourly Weather Lievin

    Today, 20 March, Wednesday

    Time Temperature Precipitation Wind Pressure Humidity
    00:00 +5°C° 0 mm 3 mps 766 mmHg 93%
    01:00 +4°C° 0 mm 3 mps 766 mmHg 93%
    02:00 +4°C° 0 mm 3 mps 766 mmHg 93%
    03:00 +4°C° 0 mm 3 mps 766 mmHg 93%
    04:00 +5°C° 0 mm 2 mps 767 mmHg 93%
    05:00 +5°C° 0 mm 2 mps 767 mmHg 93%
    06:00 +4°C° 0 mm 3 mps 767 mmHg 92%
    07:00 +5°C° 0 mm 3 mps 767 mmHg 89%
    08:00 +8°C° 0 mm 3 mps 767 mmHg 85%
    09:00 +9°C° 0 mm 3 mps 767 mmHg 81%
    10:00 +10°C° 0 mm 3 mps 768 mmHg 77%
    11:00 +11°C° 0 mm 3 mps 768 mmHg 73%
    12:00 +12°C° 0 mm 3 mps 768 mmHg 68%
    13:00 +12°C° 0 mm 3 mps 768 mmHg 68%
    14:00 +12°C° 0 mm 3 mps 768 mmHg 68%
    15:00 +13°C° 0 mm 2 mps 767 mmHg 68%
    16:00 +13°C° 0 mm 2 mps 767 mmHg 72%
    17:00 +12°C° 0 mm 2 mps 768 mmHg 76%
    18:00 +11°C° 0 mm 1 mps 768 mmHg 79%
    19:00 +11°C° 0 mm 1 mps 768 mmHg 82%
    20:00 +10°C° 0 mm 1 mps 768 mmHg 84%
    21:00 +10°C° 0 mm 1 mps 768 mmHg 86%
    22:00 +9°C° 0 mm 1 mps 768 mmHg 87%
    23:00 +9°C° 0 mm 1 mps 768 mmHg 89%

    Tomorrow, 21 March, Thursday

    Time Temperature Precipitation Wind Pressure Humidity
    00:00 +8°C° 0 mm 1 mps 768 mmHg 90%
    01:00 +8°C° 0 mm 1 mps 768 mmHg 90%
    02:00 +8°C° 0 mm 1 mps 768 mmHg 91%
    03:00 +7°C° 0 mm 1 mps 768 mmHg 91%
    04:00 +7°C° 0 mm 1 mps 768 mmHg 91%
    05:00 +7°C° 0 mm 1 mps 768 mmHg 91%
    06:00 +7°C° 0 mm 1 mps 768 mmHg 92%
    07:00 +8°C° 0 mm 1 mps 768 mmHg 87%
    08:00 +10°C° 0 mm 1 mps 768 mmHg 82%
    09:00 +12°C° 0 mm 1 mps 768 mmHg 77%
    10:00 +12°C° 0 mm 1 mps 768 mmHg 75%
    11:00 +13°C° 0 mm 1 mps 768 mmHg 72%
    12:00 +14°C° 0 mm 1 mps 768 mmHg 70%
    13:00 +14°C° 0 mm 1 mps 768 mmHg 71%
    14:00 +14°C° 0 mm 1 mps 767 mmHg 72%
    15:00 +14°C° 0 mm 1 mps 767 mmHg 73%
    16:00 +13°C° 0 mm 1 mps 767 mmHg 76%
    17:00 +12°C° 0 mm 1 mps 767 mmHg 79%
    18:00 +12°C° 0 mm 1 mps 766 mmHg 82%
    19:00 +11°C° 0 mm 1 mps 767 mmHg 84%
    20:00 +10°C° 0 mm 1 mps 767 mmHg 87%
    21:00 +10°C° 0 mm 1 mps 767 mmHg 89%
    22:00 +9°C° 0 mm 1 mps 767 mmHg 90%
    23:00 +9°C° 0 mm 1 mps 767 mmHg 91%

    Day after tomorrow, 22 March, Friday

    Time Temperature Precipitation Wind Pressure Humidity
    00:00 +9°C° 0 mm 1 mps 767 mmHg 92%
    01:00 +9°C° 0 mm 1 mps 766 mmHg 92%
    02:00 +8°C° 0 mm 1 mps 766 mmHg 92%
    03:00 +8°C° 0 mm 1 mps 765 mmHg 93%
    04:00 +8°C° 0 mm 1 mps 765 mmHg 93%
    05:00 +8°C° 0 mm 1 mps 765 mmHg 93%
    06:00 +7°C° 0 mm 1 mps 765 mmHg 92%
    07:00 +9°C° 0 mm 1 mps 765 mmHg 85%
    08:00 +11°C° 0 mm 1 mps 765 mmHg 77%
    09:00 +12°C° 0 mm 2 mps 765 mmHg 70%
    10:00 +14°C° 0 mm 2 mps 765 mmHg 63%
    11:00 +15°C° 0 mm 2 mps 765 mmHg 55%
    12:00 +16°C° 0 mm 2 mps 764 mmHg 48%
    13:00 +17°C° 0 mm 2 mps 764 mmHg 47%
    14:00 +18°C° 0 mm 1 mps 764 mmHg 45%
    15:00 +18°C° 0 mm 1 mps 763 mmHg 44%
    16:00 +16°C° 0 mm 1 mps 763 mmHg 50%
    17:00 +15°C° 0 mm 1 mps 763 mmHg 56%
    18:00 +13°C° 0 mm 1 mps 763 mmHg 63%
    19:00 +12°C° 0 mm 1 mps 763 mmHg 69%
    20:00 +11°C° 0 mm 1 mps 764 mmHg 76%
    21:00 +9°C° 0 mm 2 mps 764 mmHg 82%
    22:00 +9°C° 0 mm 2 mps 764 mmHg 83%
    23:00 +8°C° 0 mm 2 mps 764 mmHg 84%

    23 March, Saturday

    Time Temperature Precipitation Wind Pressure Humidity
    00:00 +8°C° 0 mm 2 mps 764 mmHg 85%
    01:00 +7°C° 0 mm 2 mps 764 mmHg 86%
    02:00 +7°C° 0 mm 2 mps 764 mmHg 88%
    03:00 +8°C° 0 mm 1 mps 764 mmHg 90%
    04:00 +8°C° 0 mm 1 mps 764 mmHg 91%
    05:00 +8°C° 0 mm 1 mps 764 mmHg 92%
    06:00 +8°C° 0 mm 1 mps 764 mmHg 94%
    07:00 +9°C° 0 mm 1 mps 764 mmHg 90%
    08:00 +10°C° 0 mm 1 mps 765 mmHg 86%
    09:00 +12°C° 0 mm 1 mps 765 mmHg 83%
    10:00 +13°C° 0 mm 1 mps 765 mmHg 78%
    11:00 +14°C° 0 mm 2 mps 765 mmHg 73%
    12:00 +15°C° 0 mm 2 mps 765 mmHg 68%
    13:00 +14°C° 0.1 mm 3 mps 765 mmHg 70%
    14:00 +14°C° 0.1 mm 3 mps 764 mmHg 71%
    15:00 +14°C° 0.1 mm 4 mps 764 mmHg 73%
    16:00 +13°C° 0 mm 4 mps 764 mmHg 76%
    17:00 +12°C° 0 mm 4 mps 764 mmHg 79%
    18:00 +11°C° 0 mm 4 mps 764 mmHg 83%
    19:00 +10°C° 0 mm 4 mps 764 mmHg 85%
    20:00 +10°C° 0 mm 4 mps 765 mmHg 87%
    21:00 +9°C° 0 mm 3 mps 765 mmHg 89%
    22:00 +8°C° 0 mm 3 mps 764 mmHg 90%
    23:00 +8°C° 0 mm 3 mps 764 mmHg 91%

    24 March, Sunday

    Time Temperature Precipitation Wind Pressure Humidity
    00:00 +7°C° 0 mm 3 mps 764 mmHg 92%
    01:00 +7°C° 0 mm 3 mps 764 mmHg 92%
    02:00 +5°C° 0 mm 3 mps 764 mmHg 92%
    03:00 +5°C° 0 mm 3 mps 763 mmHg 91%
    04:00 +5°C° 0 mm 3 mps 763 mmHg 90%
    05:00 +4°C° 0 mm 3 mps 763 mmHg 89%
    06:00 +4°C° 0 mm 3 mps 763 mmHg 88%
    07:00 +5°C° 0 mm 3 mps 764 mmHg 83%
    08:00 +7°C° 0 mm 3 mps 764 mmHg 78%
    09:00 +9°C° 0 mm 3 mps 764 mmHg 73%
    10:00 +10°C° 0 mm 3 mps 764 mmHg 70%
    11:00 +11°C° 0 mm 4 mps 764 mmHg 67%
    12:00 +13°C° 0 mm 4 mps 764 mmHg 63%
    13:00 +13°C° 0 mm 4 mps 764 mmHg 62%
    14:00 +12°C° 0 mm 5 mps 763 mmHg 61%
    15:00 +12°C° 0 mm 5 mps 763 mmHg 59%
    16:00 +10°C° 0 mm 5 mps 763 mmHg 60%
    17:00 +8°C° 0 mm 4 mps 764 mmHg 61%
    18:00 +7°C° 0 mm 4 mps 764 mmHg 61%
    19:00 +6°C° 0 mm 4 mps 764 mmHg 63%
    20:00 +5°C° 0 mm 3 mps 765 mmHg 65%
    21:00 +4°C° 0 mm 3 mps 765 mmHg 67%
    22:00 +5°C° 0 mm 2 mps 766 mmHg 68%
    23:00 +4°C° 0 mm 2 mps 766 mmHg 69%

    25 March, Monday

    Time Temperature Precipitation Wind Pressure Humidity
    00:00 +4°C° 0 mm 2 mps 766 mmHg 71%
    01:00 +4°C° 0 mm 2 mps 766 mmHg 73%
    02:00 +4°C° 0 mm 2 mps 766 mmHg 75%
    03:00 +4°C° 0 mm 2 mps 766 mmHg 77%
    04:00 +3°C° 0 mm 2 mps 766 mmHg 80%
    05:00 +3°C° 0 mm 2 mps 766 mmHg 83%
    06:00 +3°C° 0 mm 2 mps 766 mmHg 86%
    07:00 +5°C° 0 mm 2 mps 766 mmHg 81%
    08:00 +7°C° 0 mm 3 mps 766 mmHg 76%
    09:00 +8°C° 0 mm 4 mps 767 mmHg 72%
    10:00 +8°C° 0 mm 4 mps 767 mmHg 69%
    11:00 +10°C° 0 mm 4 mps 767 mmHg 66%
    12:00 +10°C° 0 mm 5 mps 767 mmHg 63%
    13:00 +10°C° 0 mm 5 mps 766 mmHg 63%
    14:00 +9°C° 0 mm 6 mps 766 mmHg 64%
    15:00 +9°C° 0 mm 7 mps 766 mmHg 64%
    16:00 +8°C° 0 mm 6 mps 766 mmHg 67%
    17:00 +7°C° 0 mm 5 mps 766 mmHg 69%
    18:00 +6°C° 0 mm 5 mps 767 mmHg 72%
    19:00 +5°C° 0 mm 4 mps 767 mmHg 73%
    20:00 +4°C° 0 mm 4 mps 768 mmHg 73%
    21:00 +3°C° 0 mm 4 mps 768 mmHg 73%
    22:00 +3°C° 0 mm 3 mps 768 mmHg 74%
    23:00 +3°C° 0 mm 3 mps 768 mmHg 74%
    Show more